CAPE
0 0 0 0 0 0 0 0 0 0 7 43 44 15 45 185 92 64 338 298 7 98 469 771 1143 1299 1566 1749 1863 1696 1575 1596 1411 1222 970 972 938 764 939 700 370 268 191 227 450 465 1047 1346 725
0 0 0 0 0 0 0 0 0 5 134 170 196 233 267 234 515 493 295 36 29 112 327 704 940 1118 1301 1582 1949 1920 1913 1828 1725 1617 1440 1272 1119 1049 1024 785 666 399 285 281 418 321 1187 1251 998
0 0 0 0 0 0 0 0 8 124 47 89 294 398 476 562 673 616 322 151 175 119 266 614 832 882 1027 1149 1336 1457 1687 1746 1792 1753 1785 1742 1627 1474 1326 830 329 166 227 200 377 678 726 557 185
0 0 0 0 0 0 0 0 70 107 129 296 411 279 516 555 807 649 366 353 193 131 164 460 371 409 488 526 529 772 1015 1193 1271 1400 1624 1656 1463 1077 832 503 190 400 433 530 746 766 802 694 446
0 0 0 0 0 0 0 0 0 0 32 68 169 212 545 818 791 609 578 360 185 146 202 331 354 366 381 366 319 475 685 861 986 1180 1323 1347 1208 877 384 119 398 480 783 664 508 541 468 590 393
0 0 0 0 0 0 0 0 0 0 0 64 62 88 379 839 688 716 678 410 280 268 338 305 291 319 446 467 399 481 580 712 811 969 1177 1199 916 782 705 652 635 593 633 593 544 445 206 88 40
0 0 0 0 0 0 0 0 0 0 0 0 118 50 466 926 807 853 941 478 459 504 462 341 318 269 257 287 315 389 524 544 541 535 620 638 564 511 377 284 286 199 192 87 95 158 320 344 185
0 0 0 0 0 0 0 0 0 0 0 0 30 8 103 820 994 956 1105 732 666 589 579 564 432 290 137 121 191 269 352 552 549 412 283 194 231 194 113 26 42 23 12 4 0 0 0 0 0
0 0 0 0 0 0 0 0 0 0 0 0 4 11 78 723 941 1081 1266 1075 1002 903 772 733 611 437 59 11 127 152 268 439 517 433 260 108 15 0 0 0 0 0 0 0 0 0 0 0 0
0 0 0 0 0 0 0 0 0 0 0 0 0 11 296 719 875 1202 1378 1292 1195 1159 1091 865 857 695 315 54 131 100 131 253 490 463 206 26 0 0 0 0 0 0 0 0 0 0 0 0 0
0 0 0 0 0 0 0 0 0 0 0 0 0 0 448 756 772 1115 1245 1250 1007 1160 1306 1090 964 864 632 388 186 112 84 102 198 337 182 23 1 0 0 0 0 0 0 0 0 0 0 0 0
0 0 0 0 0 0 0 0 0 0 0 0 0 0 238 681 721 745 841 890 929 1053 1180 1131 740 449 364 379 386 268 214 120 144 93 64 20 0 0 0 0 0 0 0 0 0 0 0 0 0
0 0 0 0 0 0 0 0 0 0 0 0 0 11 149 376 494 527 443 467 504 660 732 202 24 4 32 84 143 169 294 260 164 106 7 0 0 0 0 0 0 0 0 0 0 0 0 0 0
0 0 0 0 0 0 0 0 0 0 0 0 0 0 73 150 64 67 4 7 84 109 106 0 0 0 0 0 0 3 15 13 31 11 0 0 0 0 0 0 0 0 0 0 0 0 0 0 0
0 0 0 0 0 0 0 0 0 0 0 0 0 0 0 0 0 0 0 0 0 0 0 0 0 0 0 0 0 0 0 0 0 0 0 0 0 0 0 0 0 0 0 0 0 0 0 0 0
0 0 0 0 0 0 0 0 0 0 0 0 0 0 0 0 0 0 0 0 0 0 0 0 0 0 0 0 0 0 0 0 0 0 0 0 0 0 0 0 0 0 0 0 0 0 0 0 0
0 0 0 0 0 0 0 0 0 0 0 0 0 0 0 0 0 0 0 0 0 0 0 0 0 0 0 0 0 0 0 0 0 0 0 0 0 0 0 0 0 0 0 0 0 0 0 0 0
0 0 0 0 0 0 0 0 0 0 0 0 0 0 0 0 0 0 0 0 0 0 0 0 0 0 0 0 0 0 0 0 0 0 0 0 0 0 0 0 0 0 0 0 0 0 0 0 0
0 0 0 0 0 0 0 0 0 0 0 0 0 0 0 0 0 0 0 0 0 0 0 0 0 0 0 0 0 0 0 0 0 0 0 0 0 0 0 0 0 0 0 0 0 0 0 0 0
0 0 0 0 0 0 0 0 0 0 0 0 0 0 0 0 0 0 0 0 0 0 0 0 0 0 0 0 0 0 0 0 0 0 0 0 0 0 0 0 0 0 0 0 0 0 0 0 0
0 0 0 0 0 0 0 0 0 0 0 0 0 0 0 0 0 0 0 0 0 0 0 0 0 0 0 0 0 0 0 0 0 0 0 0 0 0 0 0 0 0 0 0 0 0 0 0 0
0 0 0 0 0 0 0 0 0 0 0 0 0 0 0 0 0 0 0 0 0 0 0 0 0 0 0 0 0 0 0 0 0 0 0 0 0 0 0 0 0 0 0 0 0 0 0 0 0
0 0 0 0 0 0 0 0 0 0 0 0 0 0 0 0 0 0 0 0 0 0 0 0 0 0 0 0 0 0 0 0 0 0 0 0 0 0 0 0 0 0 0 0 0 0 0 0 0
0 0 0 0 0 0 0 0 0 0 0 0 0 0 0 0 0 0 0 0 0 0 0 0 0 0 0 0 0 0 0 0 0 0 0 0 0 0 0 0 0 0 0 0 0 0 0 0 0
0 0 0 0 0 0 0 0 0 0 0 0 0 0 0 0 0 0 0 0 0 0 0 0 0 0 0 0 0 0 0 0 0 0 0 0 0 0 0 0 0 0 0 0 0 0 0 0 0
0 0 0 0 0 0 0 0 0 0 0 0 0 0 0 0 0 0 0 0 0 0 0 0 0 0 0 0 0 0 0 0 0 0 0 0 0 0 0 0 0 0 0 0 0 0 0 0 0
0 0 0 0 0 0 0 0 0 0 0 0 0 0 0 0 0 0 0 0 0 0 0 0 0 0 0 0 0 0 0 0 0 0 0 0 0 0 0 0 0 0 0 0 0 0 0 0 0
0 0 0 0 0 0 0 0 0 0 0 0 0 0 0 0 0 0 0 0 0 0 0 0 0 0 0 0 0 0 0 0 0 0 0 0 0 0 0 0 0 0 0 0 0 0 0 0 0
0 0 0 0 0 0 0 0 0 0 0 0 0 0 0 0 0 0 0 0 0 0 0 0 0 0 0 0 0 0 0 0 0 0 0 0 0 0 0 0 0 0 0 0 0 0 0 0 0
0 0 0 0 0 0 0 0 0 0 0 0 0 0 0 0 0 0 0 0 0 0 0 0 0 0 0 0 0 0 0 0 0 0 0 0 0 0 0 0 0 0 0 0 0 0 0 0 0
CIN
-0 -0 -0 -0 -0 -0 -0 -0 -0 -0 -79 -145 -189 -164 -175 -202 -179 -117 -183 -218 -533 -418 -182 -59 -10 -7 -18 -9 -9 -10 -27 -39 -66 -84 -89 -89 -94 -126 -77 -124 -216 -243 -284 -250 -159 -125 -37 -27 -56
-0 -0 -0 -0 -0 -0 -0 -0 -0 -70 -124 -143 -125 -126 -121 -139 -102 -131 -219 -508 -513 -419 -273 -122 -67 -34 -66 -23 -7 -14 -38 -45 -56 -60 -81 -76 -78 -84 -91 -108 -123 -186 -227 -209 -135 -139 -14 -12 -32
-0 -0 -0 -0 -0 -0 -0 -0 -79 -114 -196 -159 -95 -129 -109 -78 -83 -110 -265 -417 -398 -447 -355 -205 -117 -149 -123 -121 -83 -94 -67 -69 -63 -68 -59 -36 -22 -25 -37 -80 -186 -258 -237 -221 -134 -60 -46 -75 -137
-0 -0 -0 -0 -0 -0 -0 -0 -105 -115 -129 -106 -104 -85 -100 -119 -81 -145 -285 -312 -395 -447 -403 -258 -295 -304 -275 -273 -261 -202 -162 -142 -134 -113 -68 -46 -48 -67 -87 -136 -237 -166 -141 -103 -50 -23 -5 -22 -40
-0 -0 -0 -0 -0 -0 -0 -0 -0 -0 -124 -128 -133 -104 -108 -94 -136 -193 -219 -331 -368 -422 -415 -352 -324 -318 -306 -277 -286 -248 -194 -169 -131 -104 -85 -82 -79 -109 -186 -286 -157 -135 -66 -77 -87 -61 -58 -40 -51
-0 -0 -0 -0 -0 -0 -0 -0 -0 -0 -0 -144 -146 -150 -108 -120 -154 -179 -211 -280 -323 -324 -353 -343 -317 -270 -218 -210 -229 -219 -195 -146 -108 -79 -47 -38 -68 -86 -97 -109 -120 -109 -88 -81 -77 -88 -152 -212 -135
-0 -0 -0 -0 -0 -0 -0 -0 -0 -0 -0 -0 -140 -137 -115 -89 -112 -151 -147 -252 -269 -282 -272 -266 -246 -240 -233 -229 -210 -200 -167 -147 -147 -128 -94 -91 -112 -136 -188 -211 -209 -240 -254 -311 -303 -246 -142 -91 -130
-0 -0 -0 -0 -0 -0 -0 -0 -0 -0 -0 -0 -232 -76 -151 -89 -99 -140 -121 -175 -202 -209 -187 -171 -201 -213 -269 -284 -257 -227 -196 -143 -135 -156 -197 -246 -226 -246 -311 -385 -367 -405 -432 -433 -0 -0 -0 -0 -0
-0 -0 -0 -0 -0 -0 -0 -0 -0 -0 -0 -0 -111 -192 -228 -109 -131 -100 -75 -96 -108 -131 -143 -144 -150 -191 -316 -358 -268 -245 -189 -140 -120 -133 -181 -233 -340 -0 -0 -0 -0 -0 -0 -0 -0 -0 -0 -0 -0
-0 -0 -0 -0 -0 -0 -0 -0 -0 -0 -0 -0 -0 -291 -204 -136 -119 -74 -42 -46 -68 -82 -102 -131 -136 -148 -206 -280 -254 -243 -205 -154 -117 -118 -157 -246 -0 -0 -0 -0 -0 -0 -0 -0 -0 -0 -0 -0 -0
-0 -0 -0 -0 -0 -0 -0 -0 -0 -0 -0 -0 -0 -0 -163 -128 -137 -75 -58 -45 -47 -75 -93 -116 -115 -131 -129 -129 -191 -229 -219 -172 -142 -108 -130 -190 -118 -0 -0 -0 -0 -0 -0 -0 -0 -0 -0 -0 -0
-0 -0 -0 -0 -0 -0 -0 -0 -0 -0 -0 -0 -0 -12 -194 -120 -121 -111 -86 -62 -60 -81 -78 -96 -133 -151 -157 -136 -119 -134 -133 -157 -129 -135 -142 -196 -0 -0 -0 -0 -0 -0 -0 -0 -0 -0 -0 -0 -0
-0 -0 -0 -0 -0 -0 -0 -0 -0 -0 -0 -0 -0 -89 -167 -122 -112 -146 -135 -112 -110 -92 -108 -169 -193 -224 -289 -224 -187 -153 -96 -90 -107 -103 -178 -0 -0 -0 -0 -0 -0 -0 -0 -0 -0 -0 -0 -0 -0
-0 -0 -0 -0 -0 -0 -0 -0 -0 -0 -0 -0 -0 -0 -215 -154 -200 -231 -110 -272 -208 -187 -177 -0 -0 -0 -0 -0 -0 -85 -56 -194 -138 -146 -0 -0 -0 -0 -0 -0 -0 -0 -0 -0 -0 -0 -0 -0 -0
-0 -0 -0 -0 -0 -0 -0 -0 -0 -0 -0 -0 -0 -0 -0 -0 -0 -0 -0 -0 -0 -0 -0 -0 -0 -0 -0 -0 -0 -0 -0 -0 -0 -0 -0 -0 -0 -0 -0 -0 -0 -0 -0 -0 -0 -0 -0 -0 -0
-0 -0 -0 -0 -0 -0 -0 -0 -0 -0 -0 -0 -0 -0 -0 -0 -0 -0 -0 -0 -0 -0 -0 -0 -0 -0 -0 -0 -0 -0 -0 -0 -0 -0 -0 -0 -0 -0 -0 -0 -0 -0 -0 -0 -0 -0 -0 -0 -0
-0 -0 -0 -0 -0 -0 -0 -0 -0 -0 -0 -0 -0 -0 -0 -0 -0 -0 -0 -0 -0 -0 -0 -0 -0 -0 -0 -0 -0 -0 -0 -0 -0 -0 -0 -0 -0 -0 -0 -0 -0 -0 -0 -0 -0 -0 -0 -0 -0
-0 -0 -0 -0 -0 -0 -0 -0 -0 -0 -0 -0 -0 -0 -0 -0 -0 -0 -0 -0 -0 -0 -0 -0 -0 -0 -0 -0 -0 -0 -0 -0 -0 -0 -0 -0 -0 -0 -0 -0 -0 -0 -0 -0 -0 -0 -0 -0 -0
-0 -0 -0 -0 -0 -0 -0 -0 -0 -0 -0 -0 -0 -0 -0 -0 -0 -0 -0 -0 -0 -0 -0 -0 -0 -0 -0 -0 -0 -0 -0 -0 -0 -0 -0 -0 -0 -0 -0 -0 -0 -0 -0 -0 -0 -0 -0 -0 -0
-0 -0 -0 -0 -0 -0 -0 -0 -0 -0 -0 -0 -0 -0 -0 -0 -0 -0 -0 -0 -0 -0 -0 -0 -0 -0 -0 -0 -0 -0 -0 -0 -0 -0 -0 -0 -0 -0 -0 -0 -0 -0 -0 -0 -0 -0 -0 -0 -0
-0 -0 -0 -0 -0 -0 -0 -0 -0 -0 -0 -0 -0 -0 -0 -0 -0 -0 -0 -0 -0 -0 -0 -0 -0 -0 -0 -0 -0 -0 -0 -0 -0 -0 -0 -0 -0 -0 -0 -0 -0 -0 -0 -0 -0 -0 -0 -0 -0
-0 -0 -0 -0 -0 -0 -0 -0 -0 -0 -0 -0 -0 -0 -0 -0 -0 -0 -0 -0 -0 -0 -0 -0 -0 -0 -0 -0 -0 -0 -0 -0 -0 -0 -0 -0 -0 -0 -0 -0 -0 -0 -0 -0 -0 -0 -0 -0 -0
-0 -0 -0 -0 -0 -0 -0 -0 -0 -0 -0 -0 -0 -0 -0 -0 -0 -0 -0 -0 -0 -0 -0 -0 -0 -0 -0 -0 -0 -0 -0 -0 -0 -0 -0 -0 -0 -0 -0 -0 -0 -0 -0 -0 -0 -0 -0 -0 -0
-0 -0 -0 -0 -0 -0 -0 -0 -0 -0 -0 -0 -0 -0 -0 -0 -0 -0 -0 -0 -0 -0 -0 -0 -0 -0 -0 -0 -0 -0 -0 -0 -0 -0 -0 -0 -0 -0 -0 -0 -0 -0 -0 -0 -0 -0 -0 -0 -0
-0 -0 -0 -0 -0 -0 -0 -0 -0 -0 -0 -0 -0 -0 -0 -0 -0 -0 -0 -0 -0 -0 -0 -0 -0 -0 -0 -0 -0 -0 -0 -0 -0 -0 -0 -0 -0 -0 -0 -0 -0 -0 -0 -0 -0 -0 -0 -0 -0
-0 -0 -0 -0 -0 -0 -0 -0 -0 -0 -0 -0 -0 -0 -0 -0 -0 -0 -0 -0 -0 -0 -0 -0 -0 -0 -0 -0 -0 -0 -0 -0 -0 -0 -0 -0 -0 -0 -0 -0 -0 -0 -0 -0 -0 -0 -0 -0 -0
-0 -0 -0 -0 -0 -0 -0 -0 -0 -0 -0 -0 -0 -0 -0 -0 -0 -0 -0 -0 -0 -0 -0 -0 -0 -0 -0 -0 -0 -0 -0 -0 -0 -0 -0 -0 -0 -0 -0 -0 -0 -0 -0 -0 -0 -0 -0 -0 -0
-0 -0 -0 -0 -0 -0 -0 -0 -0 -0 -0 -0 -0 -0 -0 -0 -0 -0 -0 -0 -0 -0 -0 -0 -0 -0 -0 -0 -0 -0 -0 -0 -0 -0 -0 -0 -0 -0 -0 -0 -0 -0 -0 -0 -0 -0 -0 -0 -0
-0 -0 -0 -0 -0 -0 -0 -0 -0 -0 -0 -0 -0 -0 -0 -0 -0 -0 -0 -0 -0 -0 -0 -0 -0 -0 -0 -0 -0 -0 -0 -0 -0 -0 -0 -0 -0 -0 -0 -0 -0 -0 -0 -0 -0 -0 -0 -0 -0
-0 -0 -0 -0 -0 -0 -0 -0 -0 -0 -0 -0 -0 -0 -0 -0 -0 -0 -0 -0 -0 -0 -0 -0 -0 -0 -0 -0 -0 -0 -0 -0 -0 -0 -0 -0 -0 -0 -0 -0 -0 -0 -0 -0 -0 -0 -0 -0 -0
Wind_Speed
17 15 12 13 13 14 15 16 13 15 16 15 15 16 16 18 17 17 13 12 14 15 16 16 16 16 17 16 15 16 16 16 16 14 14 13 13 13 15 17 18 20 21 22 23 23 20 17 15
15 12 13 13 10 13 15 16 14 14 14 15 17 18 19 19 17 13 12 13 14 15 15 16 16 17 18 17 16 15 16 15 14 14 15 14 14 15 17 19 21 21 20 22 25 24 22 21 21
12 13 13 13 13 14 13 14 13 13 14 17 16 18 18 18 15 12 13 14 15 16 17 17 17 16 17 17 17 17 16 16 16 16 16 16 15 16 17 20 22 22 21 21 23 24 23 23 23
12 12 14 14 14 16 13 13 13 14 16 16 15 18 19 17 12 13 15 15 14 15 15 15 15 16 16 16 16 16 16 16 16 16 16 16 16 16 17 19 21 21 22 23 23 23 24 24 23
13 13 12 12 15 16 15 14 13 14 15 16 15 17 18 16 15 16 15 15 14 14 14 14 15 15 15 16 16 17 17 18 17 15 15 16 16 15 16 17 17 18 21 24 24 23 23 24 24
12 12 9 11 12 15 16 16 16 17 16 16 17 17 17 16 17 17 16 16 15 14 13 13 14 14 16 17 18 18 19 18 17 18 18 17 18 19 19 18 19 20 22 22 23 22 23 23 23
11 10 10 11 12 14 15 17 17 17 16 17 15 16 16 16 16 18 16 15 14 14 14 14 15 16 16 17 17 18 17 16 16 16 16 16 16 17 17 18 18 20 21 22 22 22 22 21 21
12 11 11 13 13 15 16 16 15 16 16 16 16 16 17 20 22 20 19 18 16 16 15 15 15 16 17 16 16 16 15 15 16 16 15 15 16 16 16 16 17 17 18 20 21 22 22 22 22
11 11 11 12 13 14 14 14 12 13 18 17 18 20 19 22 21 19 17 16 15 15 15 15 14 15 15 15 16 15 14 14 15 14 14 14 14 15 16 16 16 17 18 20 21 21 20 21 23
10 11 11 5 15 9 13 16 16 17 19 19 19 19 20 21 19 18 17 16 15 15 14 12 12 13 14 14 15 13 13 13 13 13 13 13 13 14 16 17 18 19 19 20 21 22 21 21 22
12 12 17 14 15 17 17 16 16 18 17 18 17 19 21 20 18 17 16 14 13 12 11 10 11 12 13 12 12 12 12 12 13 12 12 12 13 13 14 15 16 19 20 21 21 21 22 22 23
15 16 17 16 17 18 17 15 15 16 15 16 16 18 19 17 16 16 14 13 11 11 9 10 10 12 13 12 10 10 11 11 12 13 13 13 13 13 14 14 15 17 18 19 20 20 21 21 23
15 18 18 16 18 16 15 14 14 13 15 15 15 15 15 14 14 12 11 10 9 9 9 10 11 13 14 14 14 13 12 13 13 13 14 14 15 16 17 18 18 19 20 20 21 21 21 21 21
14 15 15 15 16 14 14 14 13 12 11 13 12 13 13 12 12 11 10 9 8 7 8 9 11 13 15 17 17 17 16 17 17 16 16 16 17 18 19 20 20 20 19 20 20 21 22 22 22
13 12 13 14 15 16 12 14 13 12 13 11 11 11 12 12 10 10 9 8 8 7 8 9 11 14 16 18 19 19 19 20 20 20 19 19 20 20 21 22 22 21 20 20 20 22 22 23 23
12 13 13 13 15 9 13 15 13 9 8 10 9 10 10 10 7 7 10 10 9 9 8 10 12 14 17 19 20 20 20 20 21 21 20 20 20 19 20 21 21 21 20 19 20 22 24 24 25
13 14 13 14 16 16 18 16 14 15 22 16 6 7 6 6 8 14 11 10 9 8 8 9 10 13 17 19 20 20 20 21 21 21 21 21 21 20 20 20 20 19 19 20 22 23 23 25 26
15 15 12 11 19 22 23 20 24 26 11 13 14 9 5 6 11 15 15 13 11 10 8 9 11 14 18 20 21 22 22 21 23 23 24 24 22 21 21 22 22 20 21 22 22 23 23 25 26
18 18 21 21 18 25 25 26 25 22 17 17 16 14 12 12 14 16 17 17 16 14 11 11 13 15 19 21 24 25 25 26 26 26 26 27 25 24 23 24 24 22 22 22 21 23 24 25 25
21 23 23 22 23 24 24 21 20 21 19 18 17 15 14 14 16 17 17 17 16 14 13 13 15 20 21 22 24 27 30 30 31 33 33 31 29 27 27 27 26 25 25 25 24 23 26 27 25
22 21 23 21 24 19 24 15 21 20 18 18 17 15 15 15 15 15 15 15 17 15 16 18 21 24 26 26 29 31 32 32 36 38 37 37 34 32 31 30 30 30 29 30 28 28 28 30 28
25 22 27 27 23 18 22 15 22 20 17 17 16 14 13 13 13 14 15 17 18 19 21 24 26 27 28 30 32 34 36 40 38 39 39 41 39 38 36 34 33 33 33 34 32 30 30 30 32
25 29 26 21 15 14 20 18 19 22 19 16 13 12 13 13 15 17 18 20 22 22 22 24 25 28 32 34 35 37 39 39 41 44 43 42 42 41 40 38 36 35 33 33 32 30 28 28 28
29 25 20 17 16 18 18 22 20 21 21 18 13 14 14 17 19 20 20 21 22 24 26 29 32 34 36 36 37 38 41 44 46 46 46 46 47 45 43 41 37 34 31 29 25 22 21 23 24
27 23 21 20 21 19 20 22 18 21 21 17 15 16 20 22 23 20 21 24 25 28 30 31 33 37 37 36 38 39 41 44 48 49 48 49 48 44 41 36 32 29 26 24 23 22 22 25 27
23 22 20 22 24 26 24 22 19 21 22 20 21 23 25 26 24 23 23 23 26 29 32 33 35 39 39 39 40 41 44 47 49 49 49 47 41 36 32 30 27 26 25 23 24 25 26 29 29
21 21 19 21 23 25 22 21 18 18 27 30 29 27 27 26 25 25 23 25 28 33 35 36 36 39 40 39 42 45 47 50 52 52 47 41 33 30 28 28 27 26 25 25 27 28 28 28 27
19 17 24 25 27 28 25 27 25 24 34 33 26 27 28 27 27 28 27 27 31 34 35 38 39 40 41 40 43 46 50 52 52 50 44 35 29 28 28 28 27 26 27 25 27 27 27 28 29
20 22 22 23 23 26 30 24 20 25 29 27 24 27 29 30 29 28 29 29 32 35 38 40 41 41 43 41 44 49 52 53 53 46 39 30 28 28 26 26 28 30 29 28 27 27 28 30 33
18 19 23 27 27 26 28 31 19 21 26 24 25 29 30 29 31 33 33 34 36 42 42 41 41 42 41 43 48 51 52 52 48 41 34 28 28 26 27 28 28 29 28 29 30 31 32 34 36
Wind_Direction
337 346 4 1 345 356 356 350 350 350 358 12 13 16 15 0 352 342 5 34 38 49 50 48 37 30 33 28 47 44 44 39 42 38 37 27 18 11 359 355 352 347 344 334 329 331 336 337 342
342 6 3 3 360 349 353 357 7 11 34 27 11 3 359 0 358 16 15 46 49 48 48 48 43 42 39 38 42 37 36 30 28 24 15 9 3 354 346 340 338 339 341 333 323 321 326 324 325
13 11 9 1 352 346 347 354 8 31 20 358 2 356 353 353 359 17 54 69 63 60 62 59 59 40 33 30 30 24 20 10 8 6 3 1 358 350 345 341 334 337 340 337 326 321 321 322 317
16 10 16 20 4 358 360 16 32 23 10 5 8 359 354 353 24 45 76 71 60 54 50 49 44 38 31 24 21 13 11 10 8 3 3 2 2 357 353 344 340 341 341 338 333 327 323 323 324
17 16 11 8 359 5 18 17 31 26 17 6 2 5 7 29 64 82 79 74 65 52 54 55 46 37 25 16 16 12 10 8 9 15 16 13 12 11 6 360 357 353 343 336 335 331 328 323 319
9 11 4 358 0 6 17 20 18 16 15 15 18 15 19 61 81 95 91 88 78 71 57 39 27 20 18 19 14 12 10 13 17 18 17 19 17 14 11 7 358 349 342 343 342 341 334 330 325
13 359 351 2 3 9 6 356 14 12 6 2 43 41 75 93 99 101 94 78 78 75 62 58 50 35 27 27 25 23 30 42 49 52 56 55 45 35 35 37 24 1 354 350 344 345 348 352 347
12 13 6 360 2 0 358 1 352 339 352 53 58 78 99 130 128 120 120 118 113 95 91 83 70 57 47 45 46 53 61 59 49 42 38 31 28 24 22 19 18 15 10 4 357 350 346 343 340
337 12 13 7 9 0 226 223 197 167 107 136 133 113 105 109 114 107 106 109 104 105 104 91 89 77 67 57 50 53 53 45 41 35 32 30 28 22 16 12 9 5 358 352 349 349 349 343 335
339 15 1 204 195 278 198 173 154 143 121 109 99 101 91 105 115 114 120 118 115 120 117 102 93 68 53 46 44 48 44 43 36 31 28 23 19 15 8 2 357 353 350 346 344 343 341 340 338
196 194 183 195 186 171 167 169 160 132 142 133 130 115 110 115 115 128 131 122 128 120 111 106 87 59 48 46 43 38 33 30 26 25 24 17 10 6 4 0 355 349 343 341 339 338 336 334 333
179 177 170 165 164 156 162 169 159 148 146 141 135 114 113 113 119 126 129 136 131 123 111 90 66 52 45 41 41 29 23 19 13 11 8 4 -0 356 353 351 349 346 344 341 339 337 335 332 329
175 163 162 165 156 165 172 180 183 178 171 154 117 113 119 115 114 103 111 109 108 115 90 78 56 45 38 33 28 23 16 9 5 1 357 354 350 345 342 340 339 337 336 335 333 331 330 330 330
199 182 183 191 178 180 182 195 196 194 214 140 113 118 123 116 113 84 76 92 102 87 86 64 44 37 28 21 17 13 7 360 356 352 347 344 341 338 337 335 333 332 332 331 330 330 327 326 326
207 210 229 262 207 189 169 204 175 141 60 156 141 135 125 129 103 104 75 77 73 84 75 58 41 30 21 14 10 5 1 356 351 347 344 340 337 334 332 332 330 329 328 327 326 325 324 322 322
246 267 271 274 20 83 168 204 223 136 109 198 144 138 131 126 94 63 31 36 44 39 33 27 25 19 13 9 7 6 2 359 354 349 345 340 336 333 332 330 328 328 327 325 322 320 318 316 316
273 226 221 194 300 270 295 235 237 310 258 226 93 124 111 85 24 4 15 21 24 29 25 26 26 17 11 6 5 3 0 358 355 351 346 339 335 330 327 326 325 324 322 318 316 314 313 312 311
241 238 197 169 270 287 295 273 276 297 12 11 11 34 58 28 6 359 3 8 10 11 17 14 10 6 3 360 356 353 351 349 348 345 341 337 330 325 321 320 319 318 317 315 314 311 310 309 309
274 254 283 324 351 297 310 301 322 338 355 354 3 14 22 18 13 14 18 22 18 14 11 5 356 354 353 349 347 347 346 345 343 341 339 335 330 323 317 314 312 310 306 306 307 309 307 306 308
306 305 305 288 319 328 321 331 345 348 358 7 18 26 28 24 22 21 21 18 19 18 9 357 351 344 345 344 344 343 340 339 337 336 335 333 327 322 315 309 306 303 301 299 299 299 302 300 300
302 314 293 277 283 338 323 4 345 355 4 8 8 15 19 23 25 23 18 15 6 4 358 349 343 340 341 341 339 338 338 337 335 334 333 332 329 324 318 311 303 299 296 295 292 292 291 294 295
302 322 302 298 326 342 350 356 354 351 2 0 7 13 18 21 17 11 5 358 355 349 346 342 341 343 346 344 341 339 337 334 335 333 331 330 329 326 323 317 311 302 297 293 291 291 291 293 290
313 308 320 333 351 1 349 354 353 1 360 358 5 13 12 11 5 358 356 353 351 350 351 353 353 348 343 342 342 338 336 335 333 332 331 330 328 326 323 319 314 308 303 297 293 293 293 294 296
320 332 341 347 349 341 349 346 348 351 354 2 13 7 5 359 356 357 356 357 356 354 349 346 344 343 342 340 339 338 336 334 334 332 329 328 326 325 324 322 319 315 311 307 304 300 302 305 306
330 333 331 328 328 335 344 341 346 354 355 2 9 6 355 349 346 347 348 347 347 346 344 344 343 340 340 340 338 338 337 335 333 331 329 327 327 327 328 329 329 327 325 322 317 309 303 304 302
332 339 332 326 325 326 337 337 344 354 357 5 360 352 350 347 349 351 350 351 349 345 344 342 340 338 337 337 337 336 334 332 332 331 329 327 327 330 334 336 336 333 330 327 324 316 310 307 302
331 333 349 337 334 329 337 344 343 346 344 342 342 345 345 348 350 350 351 348 345 342 340 338 336 335 334 333 333 332 333 333 331 329 329 327 328 330 333 334 333 333 329 322 319 316 312 310 307
350 354 332 336 328 327 331 334 335 334 330 338 346 346 347 348 348 345 343 340 339 338 336 334 334 334 334 333 332 332 331 331 331 330 329 327 329 331 331 332 332 331 329 327 324 316 313 308 306
340 339 343 341 337 331 327 337 346 340 341 345 348 348 346 344 342 340 337 334 334 334 334 334 334 333 333 334 333 332 332 332 332 331 332 331 331 334 336 336 335 331 329 328 325 319 315 311 309
357 351 344 335 332 331 327 328 346 350 353 352 344 342 341 341 340 337 333 330 331 332 333 334 334 334 335 334 333 332 332 333 335 337 339 338 336 339 339 338 336 334 330 328 324 319 317 313 310